Regional Weather Roundup
Issued by NWS

Home | Current Version | Previous Version | Graphics & Text | Print | Product List | Glossary On
Versions: 1 2 3 4 5 6 7 8 9 10 11 12 13 14 15 16 17 18 19 20 21 22 23 24 25 26 27 28 29 30 31 32 33 34 35 36 37 38 39 40 41 42 43 44 45 46 47 48 49 50
000
ASUS43 KLOT 260621
RWRIL

ILLINOIS REGIONAL WEATHER ROUNDUP
NATIONAL WEATHER SERVICE CHICAGO/ROMEOVILLE IL
100 AM CDT SUN APR 26 2015

NOTE: "FAIR" INDICATES FEW OR NO CLOUDS BELOW 12,000 FEET WITH NO
SIGNIFICANT WEATHER AND/OR OBSTRUCTIONS TO VISIBILITY.

* THESE STATIONS ARE NOT UNDER NWS QUALITY CONTROL. THEY ALSO MAY NOT
  REPORT WEATHER SUCH AS PRECIPITATION OR FOG.

ILZ001-002-007-009-015-016-024-260700-
NORTHWEST ILLINOIS

CITY           SKY/WX    TMP DP  RH WIND       PRES   REMARKS
MOLINE         PTCLDY    44  33  65 NE7       29.91R
6HR MIN TEMP:  44; 6HR MAX TEMP:  49;

STERLING*      CLEAR     39  30  70 N7        29.91S WCI  34
SAVANNA*       PTCLDY    42  33  71 N5        29.92R
$$

ILZ003-004-008-010-011-017-018-260700-
NORTH CENTRAL ILLINOIS

CITY           SKY/WX    TMP DP  RH WIND       PRES   REMARKS
ROCKFORD       CLEAR     39  21  48 N9        29.92R WCI  33
6HR MIN TEMP:  38; 6HR MAX TEMP:  46;

FREEPORT*      CLEAR     37  32  82 N3        29.94R
ROCHELLE*      CLEAR     37  28  72 N8        29.90R WCI  30
DE KALB*       PTCLDY    35  26  69 N8        29.89R WCI  28
PERU*          PTCLDY    41  29  61 NE14      29.88R
$$

ILZ005-006-012>014-019>023-260700-
NORTHEAST ILLINOIS

CITY           SKY/WX    TMP DP  RH WIND       PRES   REMARKS
CHICAGO-OHARE  CLEAR     39  30  70 N8        29.87R WCI  33
6HR MIN TEMP:  39; 6HR MAX TEMP:  42;

CHICAGO-MIDWAY PTCLDY    42  33  70 N10       29.86R
6HR MIN TEMP:  40; 6HR MAX TEMP:  46; 6HR PCP: TRACE;

AURORA         MOCLDY    39  27  62 N10       29.88R WCI  32
6HR MIN TEMP:  36; 6HR MAX TEMP:  46;

LANSING*       CLEAR     39  32  78 CALM      29.86R
JOLIET*        MOCLDY    41  33  72 CALM      29.87R
WAUKEGAN       CLEAR     37  28  70 N5        29.88R WCI  33
6HR MIN TEMP:  37; 6HR MAX TEMP:  41;

DUPAGE AIRPORT CLEAR     37  28  70 N8        29.87R WCI  31
6HR MIN TEMP:  37; 6HR MAX TEMP:  44;

KANKAKEE*      CLOUDY    41  38  86 N8        29.85R
WHEELING       CLEAR     39  29  67 N6        29.89R WCI  35
6HR MIN TEMP:  39; 6HR MAX TEMP:  42;

MORRIS*        CLEAR     38  33  84 N3        29.85R
ROMEOVILLE*    CLOUDY    39  32  73 N7        29.87R WCI  34
NORTHERLY ISL    N/A     41  35  79 N13         N/A
$$

LMZ740>746-260700-
SOUTHERN LAKE MICHIGAN

STATION/POSITION SKY/WX   TEMP    WIND        PRES    VSBY  WAVE
                          AIR SEA DIR/SP/G                  HT/PER
                          (F)     (DEG/KT/KT) (MB)    (MI)  (FT/S)
HARRISON CRIB              40     360/ 18/ 20   N/A
BURNHAM HARBOR             41     350/  8/ 14   N/A
CALUMET HARBOR             40     340/  9/ 13   N/A
BURNS HARBOR               41      50/  6/  9 1011.2R
MICHIGAN CITY              40      20/  7/  8   N/A
MICHIGAN CITY 6N           39 45   40/  6/  8   N/A           2/ 5
$$

ILZ025>027-034>036-040-047-049-050-058-095>099-260700-
WEST-CENTRAL ILLINOIS

CITY           SKY/WX    TMP DP  RH WIND       PRES   REMARKS
QUINCY         CLOUDY    47  42  83 NE12      29.84R
GALESBURG*     CLOUDY    42  36  78 NE14      29.89R
MACOMB*        CLOUDY    45  41  87 NE14      29.88S
JACKSONVILLE*  CLOUDY    48  44  84 NE13      29.83R
PITTSFIELD*    CLOUDY    48  42  81 NE10G17   29.83R
$$

ILZ028>032-037-038-041>044-048-051>054-059>061-260700-
CENTRAL ILLINOIS

CITY           SKY/WX    TMP DP  RH WIND       PRES   REMARKS
PONTIAC        CLOUDY    43  38  83 NE13      29.86R
BLOOMINGTON    MOCLDY    43  41  93 NE15      29.85R
DECATUR        CLOUDY    45  41  86 NE15      29.80R
PEORIA         CLOUDY    47  38  71 N9        29.87R
6HR MIN TEMP:  47; 6HR MAX TEMP:  49;

LACON*         CLOUDY    42  32  68 N6        29.87R
LINCOLN*       CLOUDY    47  42  84 NE9       29.84R
SPRINGFIELD    CLOUDY    48  42  80 NE16G22   29.83R
6HR MIN TEMP:  48; 6HR MAX TEMP:  51;

TAYLORVILLE    CLOUDY    45  41  87 NE14G21   29.80R
$$

ILZ033-039-045-046-055>057-062-063-260700-
EAST-CENTRAL ILLINOIS

CITY           SKY/WX    TMP DP  RH WIND       PRES   REMARKS
CHAMPAIGN      CLOUDY    45  41  86 NE15      29.79R
DANVILLE*      CLOUDY    43  37  78 E8        29.77R
RANTOUL*       CLOUDY    46  41  84 NE12      29.80R
MATTOON        CLOUDY    45  41  86 NE14      29.76R
PARIS*         CLOUDY    45  41  88 NE8       29.77S
$$

ILZ079-100>102-260700-
SOUTHWEST ILLINOIS

CITY           SKY/WX    TMP DP  RH WIND       PRES   REMARKS
ALTON          CLOUDY    47  45  91 NE9       29.78R
BELLEVILLE     CLOUDY    49  48  99 N7        29.76R
CAHOKIA*       CLOUDY    50  46  86 N12       29.78R
SPARTA*        CLOUDY    49  47  95 N8        29.75R
$$

ILZ064>066-069>071-074>076-080>082-084>086-088>090-092>094-260700-
SOUTH-CENTRAL ILLINOIS

CITY           SKY/WX    TMP DP  RH WIND       PRES   REMARKS
CARBONDALE     CLOUDY    52  49  89 N13       29.70R FOG
6HR MIN TEMP:  52; 6HR MAX TEMP:  64; 6HR PCP: TRACE;

CAIRO*         CLOUDY    60  57  88 N14       29.67R
EFFINGHAM*     CLOUDY    46  42  85 N5        29.77R
MARION         CLOUDY    52  50  93 N14       29.71R
MT. VERNON     CLOUDY    48  43  81 NE7       29.74R
CENTRALIA*     CLOUDY    47  45  93 NE8       29.74R
SALEM*         CLOUDY    49  46  88 NE10      29.74R
METROPOLIS*    CLOUDY    57  57 100 N8G17     29.66R FOG
$$

ILZ067-068-072-073-078-083-087-091-260700-
SOUTHEAST ILLINOIS

CITY           SKY/WX    TMP DP  RH WIND       PRES   REMARKS
LAWRENCEVILLE  CLOUDY    47  44  90 NE16G22   29.72S
FLORA*         CLOUDY    47  45  91 NE9       29.74R
FAIRFIELD*     CLOUDY    48  47  94 NE10      29.71R FOG
HARRISBURG*    CLOUDY    50  50 100 N10G16    29.71R FOG
ROBINSON*      CLOUDY    46  43  89 NE13      29.74R
CARMI*         CLOUDY    49  44  83 N10       29.70R
$$

ABBREVIATIONS USED IN REMARKS
   TC - TEMPERATURE IN CELSIUS
  WCI - WIND CHILL INDEX
   HX - HEAT INDEX
  VSB - VISIBILITY
$$




USA.gov is the U.S. government's official web portal to all federal, state and local government web resources and services.